Location: Rowland
(34.5359°N, 79.2929°W)
Time: 17:14:18
(UTC+00:00)

S-56A Canister/Altair - Pass Details

Date: 03 October 2022
Orbit: 638 x 2494 km, 38.9° (Epoch: 06 December)

Event Time Altitude Azimuth Distance (km) Brightness Sun altitude
Exits shadow 07:29:48 41° 64° (ENE) 1,881 9.6 -44.9°
Drops below altitude 10° 07:34:00 10° 71° (ENE) 3,051 11.1 -44.1°
Sets 07:36:17 0° 73° (ENE) 3,813 11.8 -43.7°
